Theta_e
300 300 300 300 300 301 302 303 303 305 306 307 307 307 306 305 302 299 295 297 297 298 299 296 297 298 297 296 297 297 297 295 297 298 298 298 299 301 305 311 319 321 321 321 321 321 321 321 320 319 318 317 315 314 313 312 312 311 310 309 308 307 306 303 301 300 300 299 299 298 298 298 297 297
298 298 298 299 298 299 299 300 301 302 303 304 305 306 307 307 305 303 300 300 299 297 297 298 296 296 296 296 296 297 296 295 297 297 297 297 297 298 300 304 308 312 317 319 320 320 320 320 319 318 318 317 315 314 313 312 312 311 310 309 308 305 302 300 299 299 298 298 298 297 297 297 297 296
294 295 296 297 296 297 297 299 300 301 301 302 303 304 306 306 306 306 303 301 299 299 297 297 296 295 295 295 295 295 295 295 296 296 296 296 294 296 297 299 303 306 311 315 318 319 319 319 319 318 317 316 315 314 313 312 311 311 309 308 306 302 300 299 298 298 297 297 297 296 296 295 296 296
290 292 293 295 295 295 296 296 298 298 299 300 300 302 303 304 306 306 304 303 303 297 297 296 295 296 294 295 293 294 294 295 295 295 295 295 295 296 297 297 299 302 306 310 312 315 317 317 318 317 317 316 315 314 313 312 310 309 308 305 302 300 299 298 297 297 296 296 295 295 295 294 294 294
287 289 290 293 294 294 293 294 295 296 296 297 298 299 300 301 303 304 304 303 302 296 294 295 294 294 294 292 294 293 293 293 294 294 295 295 295 295 295 296 297 299 302 303 306 309 311 312 314 315 314 314 313 313 311 310 308 307 304 301 300 298 298 297 296 296 295 295 294 293 293 292 293 293
284 286 288 290 293 293 292 292 292 293 294 294 295 296 297 298 299 302 301 302 301 302 292 292 293 292 294 292 294 292 292 292 293 293 293 293 294 294 295 296 297 298 300 302 303 305 307 308 309 311 311 311 310 310 309 308 304 301 300 299 298 297 296 295 295 294 294 293 292 291 291 291 291 292
282 283 285 287 291 292 290 290 291 291 291 292 293 294 295 296 297 298 300 299 299 300 296 292 291 291 292 292 292 292 293 292 293 292 292 292 292 292 294 294 295 297 299 300 301 303 305 306 308 307 307 307 306 306 304 302 301 300 298 297 296 295 294 293 292 292 291 290 290 289 289 289 290 290
280 281 283 285 288 290 288 288 288 289 290 290 291 291 293 294 295 296 297 298 299 298 298 291 291 291 290 290 291 291 291 291 291 291 290 291 290 291 292 293 293 295 296 298 299 300 301 302 303 302 302 302 301 300 300 299 298 297 296 295 294 293 292 292 291 291 289 289 288 288 288 288 289 290
280 280 280 282 285 287 286 286 286 287 287 289 289 289 290 292 293 294 295 296 298 298 297 292 290 290 290 289 289 290 289 289 289 289 289 289 289 289 290 290 291 293 295 296 297 298 298 299 300 300 299 299 298 297 297 296 295 295 294 293 293 292 291 291 290 289 288 288 287 287 287 287 287 288
279 279 279 280 282 284 285 285 286 286 286 288 288 288 288 290 291 291 293 295 295 297 297 293 287 288 287 286 287 289 289 288 286 286 286 287 288 288 288 288 289 289 290 291 293 296 297 297 297 297 297 296 296 295 294 294 293 293 293 292 292 291 291 290 290 289 288 287 287 287 286 287 287 287
278 278 278 278 280 281 282 283 284 285 286 287 287 287 288 288 289 289 290 292 293 294 292 288 289 287 287 287 286 287 289 289 288 285 285 284 286 286 287 286 288 288 288 289 290 291 292 293 294 295 295 294 293 293 293 292 292 292 292 291 291 290 290 289 288 287 287 286 286 286 286 286 286 287
277 277 277 277 278 279 280 281 282 285 286 286 286 287 287 287 287 287 289 290 292 292 291 288 286 286 286 286 286 287 287 286 286 286 286 284 284 284 286 286 285 287 287 286 288 290 291 292 293 293 292 292 291 291 291 291 291 291 291 290 290 289 289 288 287 286 286 285 285 285 286 286 286 286
276 276 276 277 277 279 280 282 283 285 287 286 285 286 287 286 286 287 287 288 290 290 289 287 286 286 285 285 285 284 285 284 285 286 286 285 285 284 284 285 286 286 285 285 286 286 288 288 288 288 288 289 290 289 289 289 290 290 290 290 289 289 288 287 286 286 285 285 285 285 285 285 285 286
275 275 275 276 278 279 280 281 282 284 285 286 286 286 286 286 286 285 286 286 288 289 288 287 286 285 285 285 285 285 286 286 286 285 285 284 284 284 283 284 284 285 284 283 283 284 285 286 285 286 286 285 286 286 286 286 287 288 288 288 287 287 287 286 285 285 284 284 284 284 284 285 285 285
273 273 274 275 276 277 278 279 281 282 283 285 286 287 287 287 287 285 285 285 286 286 287 288 286 286 286 287 286 286 286 286 286 285 285 285 283 282 281 281 283 284 284 283 282 282 283 284 284 284 284 284 284 284 284 287 287 287 287 287 286 286 286 285 285 284 284 283 283 284 284 284 284 285
272 272 273 274 275 276 277 278 278 280 282 284 285 286 286 287 288 288 286 285 284 285 286 287 287 287 287 287 287 286 286 285 285 285 285 284 283 281 281 282 280 282 284 281 281 280 283 282 283 282 283 283 283 283 286 287 287 287 286 286 285 285 285 285 284 284 283 283 283 283 283 283 284 284
271 272 272 273 274 275 277 277 277 278 279 282 284 285 286 286 287 287 287 287 286 286 284 284 286 287 287 287 287 287 286 286 284 284 284 284 283 283 282 282 282 281 284 281 280 279 281 281 280 281 281 282 283 284 286 287 287 286 286 285 285 284 284 284 283 282 282 282 282 282 282 283 283 283
271 271 271 272 272 274 274 275 276 277 278 279 281 283 283 283 284 286 286 286 285 285 284 284 284 287 288 288 288 288 288 286 284 284 284 284 283 282 282 284 282 282 284 280 280 278 279 281 279 278 278 280 281 282 286 287 287 286 285 285 284 284 283 283 282 281 281 281 281 281 282 282 282 282
271 271 272 272 272 273 273 275 276 277 277 278 280 281 282 283 283 284 283 283 284 284 284 283 283 284 286 288 288 288 288 287 287 286 285 285 284 281 278 277 279 280 282 281 280 277 279 280 278 277 277 278 277 279 285 288 287 286 284 284 283 283 282 281 281 280 280 280 280 281 281 281 281 281
272 272 272 272 272 273 273 276 278 279 278 278 278 279 281 282 282 283 284 286 286 285 285 284 283 283 284 286 288 288 288 287 286 284 282 282 280 279 278 277 277 277 280 280 280 277 277 279 277 275 275 275 275 278 279 286 287 285 283 283 282 282 281 280 280 280 279 279 279 280 280 280 280 280
271 272 272 272 273 273 273 276 278 280 280 278 278 279 279 281 281 282 284 285 286 286 286 286 286 287 288 289 289 290 290 288 286 282 281 280 280 279 277 277 276 276 278 277 278 277 275 277 274 273 273 274 273 273 274 277 286 284 282 281 281 280 279 279 279 278 278 278 278 279 279 279 279 279
271 272 273 274 273 273 274 277 279 281 280 278 278 278 279 280 281 282 282 281 281 284 284 284 284 284 284 284 286 289 290 290 286 283 281 281 280 279 279 276 276 275 276 277 277 276 274 274 273 272 273 273 271 271 272 273 274 277 278 279 278 278 278 277 277 277 277 277 277 278 278 278 278 275
270 271 272 274 275 275 276 279 279 281 280 278 278 278 278 278 279 281 282 281 281 281 281 281 281 280 280 278 278 281 287 289 286 285 284 282 280 279 279 277 274 273 274 277 277 274 271 272 273 273 271 269 273 272 271 271 270 270 270 271 272 275 275 275 275 275 275 276 276 276 277 277 277 273
270 271 271 273 275 276 277 278 279 279 280 278 278 278 277 277 277 281 282 281 281 280 280 280 279 277 277 276 277 278 280 285 285 284 283 282 281 280 280 277 276 275 274 277 277 276 274 275 273 276 273 271 269 271 270 270 269 269 268 268 266 271 272 272 271 272 273 274 274 275 275 276 276 273
268 269 270 271 273 276 276 277 277 278 279 280 278 279 278 278 279 282 281 282 282 280 279 279 278 277 276 275 275 275 276 277 278 278 279 279 281 281 280 278 277 277 274 276 280 276 272 274 273 273 267 268 269 268 267 268 268 266 266 266 265 267 267 267 269 267 269 270 271 272 273 275 276 274
267 268 269 269 271 274 275 275 276 278 279 279 277 278 281 282 283 281 281 282 282 281 280 279 277 277 276 275 275 275 274 274 274 273 274 275 275 275 278 280 278 276 273 275 281 275 272 271 272 271 265 266 264 266 264 264 264 263 265 264 264 265 266 265 265 265 265 265 265 268 270 273 273 273
267 268 268 268 270 272 274 275 277 278 279 278 277 280 280 281 281 281 280 281 281 280 279 277 276 276 276 274 275 275 274 273 272 271 271 271 272 272 271 271 273 275 273 275 275 273 273 270 272 272 268 265 267 263 262 262 262 264 263 265 264 266 266 265 264 264 264 264 264 269 269 269 270 271
267 266 266 268 272 274 275 276 277 277 277 276 278 280 281 281 280 279 279 279 279 279 279 277 276 275 276 276 275 275 273 271 271 270 270 269 269 269 268 268 269 269 270 270 271 271 271 270 270 271 271 269 268 267 265 264 264 264 263 263 262 263 264 264 263 263 263 264 263 264 263 263 264 264
265 268 272 273 274 274 275 275 276 275 275 276 277 278 278 278 278 278 277 277 278 278 277 277 276 276 276 277 276 274 271 270 270 268 268 267 267 266 266 265 265 265 266 267 268 269 271 271 270 270 269 268 269 266 267 263 263 261 263 258 258 259 261 261 263 262 262 263 262 262 262 262 262 263
270 272 273 273 273 273 273 272 272 272 272 274 275 275 276 276 277 277 277 276 276 276 277 277 276 275 275 274 272 271 271 270 268 268 267 266 266 267 266 265 264 263 263 264 265 267 268 269 269 267 266 264 266 264 263 262 259 259 260 258 259 259 259 260 260 261 261 260 261 261 261 261 262 262
267 268 268 269 272 273 273 272 271 271 272 272 272 274 275 276 276 277 276 276 275 276 277 277 277 277 274 272 270 269 269 268 268 268 267 267 266 267 266 264 262 262 262 262 262 263 265 266 267 268 265 262 263 262 262 262 260 257 256 258 259 256 258 260 260 260 260 260 260 260 260 260 261 262
268 269 270 270 270 270 270 270 270 271 271 272 272 272 273 274 275 276 276 277 276 277 278 278 277 271 270 269 268 269 268 267 267 268 267 266 266 266 265 263 262 261 261 262 262 261 261 262 263 263 265 266 264 259 257 259 259 256 255 257 259 257 258 257 258 258 259 259 258 258 259 259 259 260
269 269 268 268 268 268 268 268 269 270 271 271 271 272 272 272 273 274 274 275 275 276 277 276 273 271 270 269 269 268 267 267 266 267 266 267 266 266 266 264 262 262 261 261 260 260 261 260 261 260 260 261 263 262 261 258 255 253 255 257 255 255 256 256 257 257 258 257 257 258 258 258 259 260
267 266 266 266 266 267 267 267 267 268 269 269 270 271 273 273 273 273 275 276 276 276 275 274 273 270 270 268 268 267 267 266 266 266 266 265 266 265 264 263 262 262 261 260 260 260 260 260 261 262 261 260 259 258 260 260 256 253 252 253 253 254 255 255 256 255 255 255 256 256 258 259 258 260
265 264 264 265 266 267 267 267 267 268 269 269 270 271 272 273 273 274 274 274 275 275 274 272 272 270 269 268 268 267 266 265 265 265 265 265 265 264 264 262 261 260 260 260 259 260 261 261 262 262 262 261 261 261 265 260 256 254 252 252 253 254 254 255 256 255 254 254 255 254 256 258 259 259
262 263 263 263 264 265 266 266 268 269 269 269 269 270 271 272 273 272 272 273 274 274 274 272 271 270 269 268 268 267 266 265 264 264 264 263 263 262 262 261 260 259 260 259 258 258 260 262 263 263 262 259 257 256 258 266 261 253 254 253 253 252 251 253 254 254 255 253 254 254 254 256 258 260
259 259 260 261 262 264 265 267 268 269 270 270 270 270 271 271 272 272 272 273 272 272 273 272 271 270 269 268 267 266 265 265 263 264 263 263 262 261 259 259 258 258 257 257 257 256 258 259 260 263 262 260 260 257 258 258 261 263 256 253 253 251 253 254 254 254 255 255 254 254 255 256 257 259
256 257 257 258 259 260 261 263 265 267 269 270 270 270 271 271 271 271 271 270 269 269 270 269 268 268 267 267 266 265 265 264 264 263 262 262 260 259 259 258 258 257 256 256 256 256 257 258 259 260 263 262 258 255 255 256 255 258 264 256 252 254 254 252 254 254 255 254 255 256 256 256 257 259
254 255 256 256 257 258 258 260 262 263 264 266 268 269 269 270 269 268 268 268 268 268 267 267 266 266 266 266 265 265 264 263 262 261 261 261 260 259 258 257 256 257 256 255 256 256 257 256 255 255 258 262 260 258 258 256 254 255 257 264 258 253 253 253 254 254 254 255 255 256 257 259 261 266
253 254 255 255 255 256 257 258 259 260 262 264 265 266 266 266 266 266 266 266 266 266 266 265 265 265 264 265 264 264 264 263 262 262 261 261 260 259 258 258 257 257 257 256 256 255 255 254 254 254 253 253 253 252 251 251 248 249 251 256 264 259 255 255 253 255 255 254 255 256 256 258 256 256
252 253 253 254 254 255 256 257 257 259 260 262 263 264 265 265 265 264 264 265 265 265 264 264 264 264 264 264 264 264 262 262 262 261 261 260 260 259 259 258 257 258 257 255 255 255 254 255 256 256 252 251 251 251 252 255 256 252 252 253 260 262 263 263 257 254 254 256 256 256 256 256 256 256
251 251 252 253 253 254 255 255 256 257 259 260 261 262 262 262 262 264 263 264 264 264 264 263 263 263 263 263 263 263 262 261 261 260 260 260 259 258 258 258 257 257 256 255 255 254 254 254 253 253 252 252 252 253 252 253 252 252 251 251 252 258 261 262 263 263 260 258 257 256 255 253 252 254
251 251 251 252 253 253 253 254 255 256 257 259 259 260 261 261 261 261 261 262 262 262 262 262 262 262 262 262 262 262 261 260 260 260 259 259 258 258 257 257 256 256 256 254 254 253 253 253 253 252 253 253 251 252 253 252 250 249 248 251 252 253 253 259 261 262 263 264 264 262 257 256 254 253
250 250 250 251 252 252 252 253 253 255 256 257 258 259 259 260 260 260 260 260 261 261 261 261 261 261 261 261 261 260 260 260 260 259 259 258 258 257 256 255 255 255 254 254 253 253 253 253 252 253 253 251 250 251 251 250 249 250 249 250 250 251 252 254 254 257 258 260 262 263 265 266 266 266
249 249 250 251 252 252 252 252 253 253 255 256 257 257 258 258 258 258 259 259 259 259 259 259 259 259 260 260 259 259 259 259 259 258 258 257 256 256 256 255 255 254 254 254 253 252 253 252 252 252 251 251 251 250 251 251 249 250 249 248 249 251 251 252 252 252 253 253 258 263 264 265 266 267
Wind_Speed
9 9 10 8 7 8 8 7 7 7 6 5 4 4 5 4 5 5 3 3 3 2 4 4 2 4 3 2 1 1 2 4 3 3 4 4 5 8 12 11 7 15 17 17 16 18 19 20 20 19 19 19 18 18 17 17 17 16 15 14 12 11 10 9 8 7 8 8 8 7 6 5 4 2
9 8 8 8 8 9 8 8 8 8 7 6 6 6 5 4 6 4 5 6 3 2 2 3 2 2 3 3 2 1 1 3 3 3 3 3 5 10 14 13 12 7 8 14 17 18 19 20 19 19 19 20 19 19 18 17 17 15 15 14 11 10 11 8 8 7 7 7 7 6 5 4 3 2
11 11 10 8 8 9 9 8 8 7 7 7 7 6 6 5 6 7 5 6 2 3 4 4 2 3 4 3 3 1 1 2 3 2 3 4 7 9 9 11 10 9 5 7 12 16 18 20 21 21 20 20 20 19 18 17 17 16 15 14 13 12 10 9 8 7 7 7 6 5 4 3 2 1
11 12 11 10 9 10 9 9 8 8 8 8 7 7 7 6 5 5 6 7 9 1 1 1 1 2 4 3 4 3 1 1 3 2 3 3 5 5 5 10 10 8 7 3 7 12 15 18 20 20 20 20 19 19 18 18 17 16 13 15 14 11 10 10 8 7 7 6 6 5 4 3 2 2
12 12 12 11 9 10 10 9 9 9 9 9 7 7 7 6 6 6 5 7 8 2 1 1 2 3 4 3 3 3 2 1 1 3 3 3 3 4 4 4 8 8 7 6 3 7 12 14 16 18 19 20 21 21 20 19 18 16 18 17 15 11 10 9 8 7 6 6 6 5 4 3 2 2
11 12 12 12 10 10 10 10 10 10 10 10 9 8 7 7 7 6 5 4 5 7 0 0 2 3 3 4 2 5 4 3 2 2 2 3 3 3 3 3 4 8 7 7 4 2 6 11 13 15 16 18 18 19 18 15 19 20 18 17 14 12 10 8 7 7 6 6 5 5 4 3 2 3
12 13 12 12 11 9 10 10 9 10 10 10 10 10 8 8 8 7 7 6 4 5 4 3 3 4 3 4 3 3 2 1 1 3 2 2 2 3 3 3 3 7 7 8 7 4 3 9 14 12 14 14 13 13 17 20 19 19 18 17 15 13 10 9 7 7 6 5 5 4 4 3 3 3
12 12 13 12 13 12 11 11 10 10 10 10 10 10 10 9 9 9 8 7 7 3 5 3 5 3 4 1 2 2 2 3 2 2 3 3 4 3 4 4 3 5 7 8 9 8 8 11 11 13 14 14 16 18 19 20 19 19 19 18 16 14 12 10 9 8 6 5 4 4 3 3 3 4
11 12 12 13 13 12 12 11 10 11 13 11 10 10 10 9 9 8 8 8 7 7 6 2 1 3 2 1 2 4 5 2 3 2 2 2 3 4 3 4 4 6 8 8 9 10 10 10 12 14 16 17 18 18 18 18 19 19 18 17 15 14 12 11 10 8 7 5 4 3 2 2 3 4
11 11 12 12 12 12 12 11 11 11 12 11 10 10 11 11 10 10 9 7 8 8 6 4 3 3 4 2 1 4 4 5 3 3 3 3 2 2 3 3 4 4 4 4 5 6 9 11 13 15 16 18 18 18 18 17 18 18 17 16 15 14 13 11 10 9 7 5 3 2 1 2 3 4
10 11 11 11 12 12 12 12 12 12 12 8 11 10 11 11 11 11 10 9 8 7 3 0 2 3 2 2 3 2 3 3 4 5 3 2 0 1 2 3 2 3 4 6 7 6 5 8 8 12 15 16 17 17 17 16 16 16 17 15 14 13 12 11 10 8 6 4 3 1 1 2 3 5
10 11 11 11 11 11 11 12 13 12 10 9 10 10 10 10 11 10 10 10 8 7 3 2 2 2 2 2 1 2 4 3 2 6 5 8 5 4 1 1 3 2 3 3 4 5 7 6 10 12 13 14 15 15 14 15 14 15 15 15 14 13 12 11 9 7 6 4 2 0 2 3 4 6
10 10 10 10 11 13 18 20 17 15 11 9 10 10 9 10 10 10 10 9 8 6 4 3 1 2 3 3 5 6 7 11 9 5 4 4 4 4 3 2 2 3 4 3 4 3 3 5 4 4 5 6 10 10 11 11 15 15 14 14 14 13 12 10 9 7 5 3 1 1 2 4 5 6
10 10 9 12 19 20 19 18 19 19 18 15 10 10 10 9 9 9 10 9 8 8 6 4 2 4 5 6 7 8 7 2 3 6 6 6 5 5 2 1 2 2 5 6 6 3 2 5 4 4 5 4 7 7 7 6 8 13 15 14 13 12 11 10 8 6 4 2 0 1 3 4 6 7
13 11 11 10 13 15 15 14 19 20 20 19 17 17 17 13 9 7 9 9 8 8 7 5 3 4 6 6 6 6 5 4 6 6 6 5 5 7 8 7 2 3 6 5 5 3 2 3 5 3 4 5 5 5 6 13 15 15 14 13 12 11 10 9 7 5 4 1 0 2 3 5 6 8
12 13 11 10 8 9 11 13 13 16 19 20 20 18 17 17 14 11 8 8 9 8 9 8 5 5 6 6 5 6 5 7 6 5 6 7 9 8 8 7 6 5 9 7 6 5 4 4 5 5 4 4 4 5 10 15 14 14 14 12 12 10 9 8 6 5 3 1 1 2 4 5 7 9
11 11 12 11 9 9 16 13 11 12 13 16 20 18 15 13 13 13 13 11 8 7 7 9 10 7 5 6 7 7 6 3 6 6 6 8 8 8 7 7 4 4 9 6 6 6 5 5 6 5 3 4 5 6 11 15 14 13 12 12 11 10 8 7 5 4 2 1 1 3 5 6 8 10
11 11 11 11 11 9 9 9 11 11 12 13 13 12 9 8 9 10 11 12 11 8 7 8 10 10 4 8 5 5 6 7 9 8 9 8 8 10 9 2 4 5 8 9 7 3 5 5 5 5 4 4 4 4 8 15 13 12 11 10 10 9 7 6 4 3 2 1 3 4 6 7 9 11
11 11 11 11 11 11 11 9 13 13 12 12 12 13 12 10 9 8 7 7 6 5 5 6 8 10 9 9 7 4 6 10 9 10 9 9 7 4 5 5 2 5 5 6 6 9 6 6 5 3 4 3 3 3 7 14 13 10 7 8 9 8 6 5 4 3 2 2 3 5 6 9 10 12
10 9 9 10 10 11 11 15 21 18 14 12 13 14 13 12 9 8 7 9 8 7 7 6 7 8 10 11 9 6 7 7 4 3 4 5 6 7 5 6 4 6 6 5 7 4 5 6 8 4 2 3 4 0 0 10 15 9 7 7 8 7 6 5 4 3 3 3 5 7 8 10 11 12
11 10 10 10 10 11 10 16 21 21 19 12 13 13 14 12 10 9 7 9 12 13 14 15 14 13 14 14 16 15 13 9 7 5 5 6 8 7 8 5 5 7 7 5 4 4 7 7 6 5 3 3 2 3 3 4 7 9 9 8 8 7 6 5 4 4 4 5 6 8 9 11 12 13
11 12 19 16 12 11 11 17 20 20 17 12 12 13 13 14 12 10 7 5 6 9 12 13 13 10 9 10 11 12 13 13 11 10 11 11 9 9 9 9 7 4 5 7 5 6 7 6 6 6 3 4 2 2 3 3 5 8 8 9 8 6 5 5 5 5 5 6 7 8 11 11 12 7
11 12 12 17 16 14 15 21 20 20 16 12 12 12 13 14 14 10 7 7 8 7 7 7 6 6 6 5 5 6 10 13 14 12 10 7 10 10 9 7 5 2 6 9 8 8 5 9 7 8 5 2 1 2 1 2 2 3 3 3 4 6 5 6 6 7 6 7 8 9 11 12 11 5
12 12 12 12 16 18 19 19 20 19 21 15 12 11 11 13 15 9 9 8 9 9 8 9 7 6 5 4 5 4 5 6 10 10 6 7 9 9 9 8 10 7 5 7 11 9 4 8 8 7 4 6 5 4 2 2 2 2 2 3 2 4 5 5 5 8 8 8 9 11 12 12 12 6
13 12 11 11 16 19 19 20 22 22 22 21 16 13 11 12 15 18 14 12 12 9 9 8 7 7 5 4 3 4 5 4 3 3 4 4 6 7 8 8 9 7 1 4 15 8 7 8 9 5 2 3 3 6 2 3 0 1 1 2 3 2 2 2 2 3 6 9 9 12 11 13 15 10
12 13 12 12 16 22 22 22 23 24 23 24 17 17 22 24 24 16 13 13 10 8 8 7 6 6 5 5 5 4 4 3 2 3 3 4 4 3 3 8 10 9 7 5 16 9 8 7 11 9 4 5 1 4 6 2 2 1 0 1 2 1 1 1 3 3 3 4 5 7 10 15 14 14
14 13 13 14 21 23 24 24 25 25 26 22 17 24 26 25 26 20 12 11 11 9 7 7 8 7 6 5 5 6 4 1 1 1 2 3 4 4 5 7 3 2 5 6 5 7 6 5 7 12 9 4 8 3 2 5 3 3 0 0 1 1 1 1 3 5 5 5 5 11 12 12 13 14
13 13 13 15 25 26 27 27 26 25 24 19 25 25 25 25 22 14 12 10 11 10 9 9 8 8 6 6 6 6 3 2 2 2 3 4 4 4 5 7 7 6 5 4 3 3 4 6 7 3 7 10 10 10 8 1 3 2 2 2 1 1 1 2 4 4 4 4 6 6 6 7 6 6
12 18 27 29 28 27 27 28 26 21 22 23 23 24 25 23 11 10 9 10 10 11 10 10 9 7 7 7 6 2 4 4 4 4 4 4 6 6 7 8 7 7 5 4 4 2 2 8 8 7 5 3 7 4 6 5 5 2 1 2 1 2 0 1 3 4 6 6 6 6 6 7 8 5
27 27 26 29 29 25 21 16 14 13 14 22 27 28 26 15 11 8 8 8 10 11 10 9 9 8 6 5 4 4 4 4 6 6 6 5 5 4 6 8 9 7 7 6 5 4 3 5 6 10 7 4 4 8 6 8 3 2 0 2 2 3 1 0 4 3 4 6 6 6 6 5 7 6
12 16 17 14 20 21 27 29 27 24 23 19 15 12 11 10 8 8 8 8 10 11 11 10 9 8 6 5 6 5 5 6 4 3 6 6 6 5 4 7 6 6 6 7 6 6 4 4 3 6 11 6 6 5 4 5 8 5 0 0 1 2 2 3 3 3 4 6 7 7 6 4 5 6
14 14 16 19 15 13 13 12 11 11 10 10 10 10 10 10 9 11 15 15 12 12 11 11 8 2 4 6 6 5 6 6 5 3 5 7 6 5 7 6 4 4 3 4 5 7 7 6 5 5 6 8 10 4 5 6 7 6 2 0 0 2 2 4 5 5 4 6 7 6 5 4 5 5
16 12 11 10 11 10 12 11 10 9 10 10 10 13 12 10 9 9 9 10 11 11 10 10 7 7 7 6 6 7 7 5 6 4 5 3 8 5 2 6 7 7 7 5 3 4 5 7 7 7 8 8 7 9 10 7 1 2 4 0 0 2 3 2 2 5 7 6 7 8 8 3 3 5
14 13 12 11 11 11 10 11 12 11 11 11 11 10 11 11 9 9 10 10 10 9 10 8 8 7 7 7 7 8 7 6 4 4 6 6 5 6 6 8 6 4 6 8 6 6 5 6 8 9 9 8 6 5 5 7 6 2 1 0 0 2 3 3 3 3 3 3 6 11 12 9 2 5
12 13 13 12 11 10 10 12 12 12 11 11 11 10 9 8 10 11 10 10 10 10 9 8 7 7 8 8 8 8 8 8 7 6 4 3 3 4 6 9 10 8 7 7 7 4 5 7 8 10 7 6 6 6 5 6 6 3 2 1 1 2 4 3 5 5 3 3 2 5 11 11 5 1
11 10 11 12 12 11 12 12 13 10 9 10 12 12 12 10 9 9 9 9 10 9 9 9 8 9 9 8 8 8 8 8 7 8 6 5 5 4 5 7 9 9 8 8 8 5 5 7 8 10 9 5 4 4 2 6 7 4 4 1 2 0 3 4 5 3 4 3 2 2 5 10 14 11
10 9 10 11 12 13 13 11 11 11 10 10 10 10 10 11 11 10 8 8 8 8 9 9 9 9 8 7 6 7 8 9 9 8 7 5 5 8 11 5 5 5 8 4 2 4 3 5 4 7 9 6 7 7 4 0 3 3 7 2 0 2 3 5 5 7 4 2 4 3 5 8 12 13
9 10 10 10 11 11 12 12 12 12 11 10 10 9 8 8 8 9 8 8 7 7 7 6 6 6 6 7 9 8 8 7 7 7 7 7 8 7 5 7 5 3 4 3 3 3 1 4 5 6 8 9 7 6 5 2 1 1 4 6 1 3 1 3 5 6 8 4 4 6 4 8 11 11
8 9 10 10 11 10 11 12 12 11 12 11 12 12 12 11 9 8 6 6 6 5 4 4 5 5 6 7 7 8 9 9 8 8 8 7 9 10 7 7 7 3 7 9 4 4 3 4 3 2 3 7 8 8 7 7 4 5 3 4 2 0 3 1 5 5 5 7 6 5 7 10 14 21
9 9 9 10 10 10 10 10 10 11 11 11 10 9 8 7 6 6 5 5 4 4 4 4 4 5 4 4 5 5 6 8 8 8 8 8 7 8 7 6 8 9 9 8 8 5 6 6 3 2 3 5 5 5 6 6 2 1 2 4 3 2 2 2 3 5 7 5 5 9 12 8 6 3
10 10 9 10 10 10 11 10 9 10 10 10 9 8 7 6 5 5 4 3 3 4 4 4 5 6 6 6 6 7 8 7 7 7 8 8 9 9 9 8 7 5 9 7 6 6 5 2 4 7 5 3 3 3 6 5 4 1 1 3 5 7 8 7 4 3 5 5 6 8 10 10 11 10
9 10 10 10 11 11 10 11 10 10 10 9 8 7 7 6 5 5 2 1 0 1 2 3 4 5 5 5 6 6 8 9 9 8 8 10 9 8 7 6 8 6 8 9 7 5 1 3 4 3 2 4 3 4 4 6 3 1 3 4 4 5 9 11 11 9 6 5 5 6 6 5 2 5
9 9 10 11 10 10 10 10 10 10 10 8 7 7 7 6 4 4 3 2 1 1 1 2 3 4 4 4 5 5 6 7 7 8 8 8 9 10 8 5 5 6 7 6 4 4 4 4 4 5 5 6 3 2 6 3 1 1 3 5 6 5 5 8 11 13 12 13 10 7 4 4 4 7
9 10 10 10 10 10 10 10 10 9 9 9 8 7 6 6 5 4 3 2 1 1 2 3 3 4 4 5 5 5 5 6 7 8 8 7 7 6 7 8 8 8 7 8 7 5 4 5 5 4 6 5 3 5 5 3 1 3 2 4 5 8 10 9 9 8 5 4 8 10 12 12 13 17
9 9 9 10 10 9 9 9 9 9 9 9 8 6 5 4 4 3 3 3 2 2 3 3 4 4 4 5 6 7 6 6 7 7 8 8 7 7 7 8 8 8 7 6 9 6 5 5 5 5 6 5 4 2 2 2 1 1 3 4 6 6 5 6 9 11 11 11 7 8 11 14 17 19
Wind_Direction
354 355 355 354 354 357 349 348 347 339 337 334 305 242 251 240 265 293 285 261 248 271 200 234 232 179 167 152 175 217 311 331 354 11 14 344 347 354 25 36 123 159 158 163 165 169 171 170 170 171 165 167 163 165 163 164 168 171 176 179 177 175 147 154 164 157 134 128 120 111 103 91 80 57
350 350 354 355 357 353 350 349 344 342 339 338 335 313 278 250 257 262 279 285 199 235 255 229 230 169 177 154 147 188 345 336 353 35 26 7 346 19 29 31 27 23 159 169 177 177 175 171 170 175 172 169 168 171 173 168 171 175 179 177 174 132 134 156 169 145 134 123 115 109 102 94 87 71
347 347 351 353 358 353 347 345 345 344 345 340 333 326 317 287 241 251 261 280 267 148 218 228 153 168 187 168 161 145 109 348 358 25 24 9 19 30 30 37 33 23 356 194 186 183 181 179 176 176 175 175 174 171 174 175 177 179 178 180 151 128 134 166 167 146 135 123 115 105 101 104 98 66
346 344 345 350 356 354 348 345 346 346 346 343 336 334 326 318 295 259 246 244 263 100 200 159 122 162 159 171 178 170 90 34 41 8 22 7 26 31 26 29 37 30 20 319 204 187 187 185 179 179 176 177 176 176 176 180 176 182 169 136 128 139 168 176 163 144 130 117 110 110 107 101 71 40
346 344 341 343 354 356 352 346 344 346 346 342 339 335 331 325 324 316 270 252 257 255 133 127 165 151 143 197 198 183 166 119 51 53 30 19 38 42 33 31 34 37 32 14 304 209 188 185 183 181 181 179 178 178 180 178 181 147 131 134 132 156 171 174 146 134 123 121 118 114 103 82 58 21
344 340 339 338 349 357 351 346 347 346 346 345 340 340 334 329 327 326 318 293 266 263 86 290 90 158 184 198 194 201 183 185 129 78 57 19 27 44 46 51 38 40 47 37 22 244 215 190 185 181 177 177 175 177 181 163 128 128 128 131 140 155 160 145 130 125 124 120 116 104 90 69 44 15
340 339 338 338 341 350 350 349 346 346 346 341 336 333 334 329 324 324 318 305 287 278 266 167 179 195 202 216 203 182 171 121 116 121 55 57 18 9 17 72 63 50 53 54 47 53 147 196 192 182 173 166 154 134 117 121 130 128 129 131 139 143 139 134 135 132 126 120 107 97 80 55 22 4
342 338 337 338 339 345 348 346 345 343 342 340 335 332 332 329 325 321 315 303 291 281 270 224 203 185 168 219 86 118 103 131 95 79 77 63 47 29 19 27 59 64 67 67 71 67 88 107 114 115 113 112 114 119 122 121 124 127 130 136 139 142 143 146 144 140 134 128 118 97 78 42 13 354
338 337 335 333 335 339 340 341 343 340 338 336 334 332 329 327 324 318 313 307 299 282 259 212 136 140 134 106 132 159 151 119 80 62 60 56 75 67 29 21 22 45 59 71 80 87 83 87 98 104 109 112 114 117 121 123 126 131 133 137 142 144 148 149 151 147 147 139 124 111 79 38 6 348
336 333 332 330 332 333 335 335 336 334 331 329 330 330 328 326 325 320 314 312 308 293 266 194 161 173 171 144 169 187 158 154 136 91 65 59 38 75 69 35 14 355 17 41 56 75 90 94 100 105 110 113 115 119 122 126 129 133 137 139 144 146 149 152 152 150 145 138 126 106 63 18 352 338
329 329 326 326 326 328 330 329 329 328 326 323 327 328 324 325 324 320 318 319 315 306 285 41 164 159 182 155 167 177 155 146 160 161 140 199 129 43 121 104 43 40 39 36 40 52 73 98 104 108 109 112 115 118 123 127 131 134 138 143 146 149 151 151 150 145 138 129 120 80 17 354 337 332
324 323 321 319 321 321 322 321 316 316 318 322 322 323 324 324 324 322 320 320 320 316 292 245 184 169 156 127 73 101 136 150 222 204 183 187 176 165 95 64 145 81 81 69 54 57 70 74 96 102 107 113 117 120 121 128 134 139 141 146 148 149 152 150 147 140 135 131 121 40 347 334 329 325
319 318 316 317 316 315 314 311 307 303 308 319 317 319 322 321 320 318 318 316 316 312 292 301 55 163 174 185 157 169 186 202 205 175 163 178 162 157 130 131 148 158 132 112 86 67 80 97 83 98 100 115 119 120 121 133 141 143 145 147 150 151 152 150 144 141 139 144 156 329 325 323 321 321
317 315 317 315 315 315 314 315 317 318 315 310 307 310 316 314 314 312 314 314 315 314 304 274 242 222 225 206 200 201 215 173 93 155 183 180 160 132 132 69 230 192 148 144 143 146 75 119 116 122 128 134 130 135 139 148 144 147 148 149 149 151 150 148 144 142 143 153 209 311 317 321 323 322
316 315 313 310 313 314 314 315 316 316 314 311 309 310 309 307 303 304 305 304 310 312 301 281 238 237 245 238 217 223 199 182 189 184 184 162 151 178 179 199 149 199 164 149 137 134 140 136 148 153 142 140 129 138 147 147 146 147 147 147 147 148 148 144 144 142 152 153 251 318 322 326 324 321
311 311 309 307 306 308 310 313 314 313 311 311 309 307 307 305 302 294 288 297 307 308 310 302 271 247 244 249 207 215 191 203 190 186 178 184 184 184 201 204 192 177 159 158 153 150 149 160 155 150 155 139 145 158 154 151 150 148 147 145 144 143 143 145 142 144 136 131 340 334 328 328 326 323
305 306 308 307 305 306 310 312 308 306 307 309 306 300 298 295 294 299 297 285 276 288 288 286 286 267 259 254 235 209 210 175 184 180 187 196 197 203 207 213 152 166 167 150 161 161 169 150 162 150 159 156 162 166 162 159 155 150 147 146 145 144 144 142 143 136 123 36 353 336 332 332 325 320
301 302 302 305 305 305 304 300 301 301 303 306 305 302 298 298 293 292 290 289 277 260 261 272 276 280 267 257 250 214 178 167 196 192 207 195 191 203 207 156 123 159 172 175 154 124 178 162 150 136 146 155 168 173 179 168 160 148 142 147 149 148 147 142 134 118 107 28 352 340 335 329 324 319
299 297 298 295 295 299 302 301 303 303 302 302 301 301 299 294 294 292 285 280 283 277 263 259 265 275 277 272 272 224 198 200 206 202 206 194 186 126 60 45 95 133 191 169 167 187 170 155 138 139 130 125 142 189 195 182 171 163 153 152 153 147 140 129 117 105 71 25 352 341 334 327 322 319
297 295 292 294 294 296 296 301 303 301 300 299 299 297 295 293 289 283 273 264 255 265 273 268 265 267 273 275 268 236 211 213 190 100 85 97 122 144 164 179 173 180 201 195 188 150 152 167 151 121 99 115 110 166 296 211 179 170 166 152 142 127 120 115 106 92 50 14 354 340 330 325 321 318
299 297 295 293 295 295 294 298 299 300 301 296 295 294 293 291 285 284 288 267 256 262 274 281 287 292 292 288 276 255 214 201 165 140 139 181 169 167 190 192 174 205 184 202 199 135 130 170 134 123 98 94 103 62 60 9 176 155 134 120 111 106 104 107 95 68 37 9 347 334 326 322 321 321
299 298 300 299 296 293 290 297 299 300 300 296 294 293 294 291 286 283 287 277 264 256 265 272 276 287 299 313 311 277 233 193 168 172 197 194 172 188 195 190 196 124 183 204 173 146 174 134 131 115 118 79 27 69 34 40 48 67 80 93 93 95 94 89 67 40 21 356 339 329 325 322 325 323
301 300 299 300 299 299 300 303 303 302 303 295 294 295 295 293 287 287 289 279 281 282 276 271 269 277 291 310 307 305 276 212 194 202 209 172 181 188 196 174 115 137 244 205 183 163 184 148 176 138 127 117 172 70 14 60 51 62 49 54 60 76 72 59 42 19 0 346 335 328 323 322 328 311
305 304 304 304 304 303 303 303 306 306 304 302 298 296 291 291 289 301 287 271 267 273 271 273 269 263 276 290 301 301 308 244 208 216 221 200 195 194 187 177 180 192 193 161 178 175 160 162 169 179 143 142 176 180 128 97 65 45 68 75 63 53 48 43 21 0 347 339 332 327 324 322 329 322
306 307 306 303 301 302 304 307 306 305 301 297 293 284 275 276 286 294 292 282 261 257 261 264 265 265 259 266 281 308 302 311 322 331 328 291 231 204 191 185 198 216 158 197 168 160 166 174 169 148 72 68 127 128 194 107 317 84 78 89 97 359 75 356 11 342 334 331 326 325 320 322 327 328
303 302 302 304 304 303 302 299 296 295 295 294 291 286 286 286 285 286 284 286 281 251 249 250 253 256 253 248 252 260 286 325 4 357 350 333 324 319 267 208 192 203 197 193 175 164 131 172 177 160 143 121 44 119 134 172 212 213 143 88 91 326 54 20 346 325 319 310 314 319 318 321 320 320
300 303 302 299 297 295 293 293 293 293 295 295 286 284 283 284 286 286 284 286 286 272 248 238 239 242 238 238 245 232 240 243 40 12 14 9 354 9 16 6 5 140 111 130 149 151 151 147 169 171 169 142 132 118 111 144 207 163 129 97 77 340 354 64 353 333 326 315 308 317 319 315 315 317
296 295 291 289 292 293 293 292 292 294 294 291 288 288 286 284 282 282 284 282 281 278 262 247 239 236 229 230 235 231 179 133 87 64 35 37 35 45 38 26 36 36 55 72 81 88 134 140 164 175 148 153 153 164 174 25 84 119 149 314 41 281 302 32 342 317 307 306 307 308 313 312 312 315
287 283 288 293 295 295 294 294 295 295 292 289 289 292 297 299 293 280 272 277 280 274 259 246 237 227 221 225 229 134 105 110 100 94 58 58 67 73 73 55 39 18 14 26 34 46 110 148 150 132 111 137 145 140 137 164 142 156 117 95 299 273 304 349 349 322 318 314 301 304 298 303 303 305
285 292 296 296 295 294 292 289 288 288 289 290 289 290 289 281 277 275 279 278 280 274 265 250 240 230 214 193 145 132 132 136 153 145 132 129 109 118 110 82 35 16 10 6 14 26 57 99 125 125 107 70 118 139 144 127 105 149 62 131 237 326 276 325 334 321 308 309 306 300 290 274 276 288
283 281 274 267 277 287 291 292 292 288 287 285 281 275 270 268 267 271 269 267 266 269 265 258 247 240 200 143 127 152 166 166 173 162 161 145 144 131 120 108 96 50 12 22 20 16 24 56 72 146 122 112 77 93 120 102 121 133 90 258 53 132 264 2 306 314 304 303 298 289 280 267 261 256
289 286 287 288 287 281 276 274 267 270 266 265 269 268 267 263 261 262 265 266 264 263 264 262 255 188 140 165 171 161 160 177 165 157 157 158 152 149 139 110 102 99 70 24 18 25 28 26 49 40 89 137 131 127 79 85 116 131 126 260 160 291 309 290 314 305 311 306 304 296 266 252 263 264
295 284 280 277 286 283 284 282 272 266 267 268 262 260 257 257 260 264 258 256 252 254 255 251 214 203 186 184 171 160 156 167 164 168 131 177 137 156 128 142 148 149 139 113 59 18 23 55 48 64 73 56 76 117 119 106 99 139 112 332 47 295 273 265 273 303 321 325 308 308 311 260 237 255
303 298 290 284 277 277 272 274 274 268 263 264 271 274 273 271 266 261 259 254 256 253 249 232 218 199 189 181 175 171 176 165 136 162 167 164 168 158 156 145 133 95 98 114 110 107 99 53 85 73 69 71 68 83 97 102 138 171 189 201 80 297 279 305 305 312 329 304 313 323 321 317 264 246
303 300 299 296 287 282 276 273 272 271 272 273 273 270 263 252 257 259 258 260 263 257 241 218 207 192 190 186 181 178 175 169 162 146 144 157 156 165 159 145 130 141 144 132 131 142 132 132 117 99 78 70 56 11 79 125 113 124 89 4 221 309 299 317 324 321 325 305 329 312 302 297 292 191
306 308 308 304 299 295 289 287 283 273 265 265 266 263 260 258 253 257 259 260 261 258 243 224 209 198 198 191 186 177 170 158 158 150 158 151 149 118 91 119 119 118 103 115 133 151 153 154 148 133 135 130 92 96 353 70 97 161 102 293 303 215 283 307 300 291 299 314 288 290 305 303 306 313
317 323 316 309 312 313 306 289 277 263 257 261 265 270 273 272 269 262 261 266 267 260 245 232 218 206 197 183 172 167 161 160 161 164 154 146 127 121 113 109 95 115 101 80 72 141 146 152 178 139 132 132 145 159 177 298 37 103 122 121 266 264 284 314 328 323 307 272 288 257 263 291 295 299
322 320 316 315 315 316 313 313 315 310 294 275 262 258 259 265 273 277 273 259 246 241 238 227 217 201 184 173 166 166 165 159 151 150 152 148 134 144 144 132 135 116 108 94 89 106 63 125 156 177 148 152 148 141 165 247 35 312 106 112 133 284 307 332 329 322 316 310 270 275 272 276 277 285
321 317 315 313 313 315 315 315 315 312 311 307 301 289 280 273 268 261 248 239 234 223 205 192 187 183 175 176 169 165 159 157 157 157 154 151 154 144 133 133 116 134 124 110 96 66 81 86 78 213 195 153 165 191 161 146 199 224 329 348 170 327 313 301 299 300 299 311 295 275 248 250 267 278
319 316 312 310 308 310 310 312 314 314 314 313 305 298 286 275 258 247 235 228 213 199 179 163 151 137 145 155 151 143 141 155 157 155 151 147 141 140 133 130 127 137 120 116 110 87 81 65 80 105 90 101 108 107 120 121 127 334 325 321 9 33 279 320 313 309 305 283 300 318 308 302 286 256
321 319 317 315 311 312 309 307 306 309 312 314 314 310 309 299 296 277 266 237 205 182 170 162 156 155 157 157 158 159 154 153 149 146 144 140 142 146 145 141 132 149 127 123 122 117 110 105 90 100 106 96 97 85 55 66 111 303 320 289 328 338 340 336 304 282 269 294 313 302 301 310 319 327
319 317 315 319 318 315 313 311 313 314 313 317 317 317 317 322 322 331 339 317 357 116 142 154 153 152 154 156 156 154 155 157 154 151 149 146 141 139 143 147 141 152 132 135 140 127 92 63 51 74 91 103 86 79 102 143 170 282 281 296 300 322 334 325 322 311 294 287 302 312 310 308 276 282
324 318 317 317 317 314 315 314 316 317 314 313 312 317 315 315 326 345 337 347 11 57 108 120 125 134 136 137 140 142 141 140 143 140 138 139 141 144 142 134 119 116 114 99 86 80 66 43 46 57 52 65 51 91 136 177 172 280 313 323 326 331 312 319 322 317 309 299 288 269 239 258 327 311
324 321 317 317 316 316 315 316 315 314 315 315 315 317 319 319 327 332 344 344 14 64 65 95 103 118 117 114 113 112 123 131 134 133 133 130 125 122 123 120 117 117 116 115 106 83 64 54 28 42 62 40 22 75 123 93 7 333 326 317 320 337 333 334 326 324 315 277 292 293 291 285 272 270
322 321 319 319 319 318 317 316 317 316 316 318 320 323 324 334 335 336 349 358 21 52 84 99 100 101 102 112 119 120 114 105 110 110 113 112 111 115 117 124 123 119 113 120 113 97 80 62 47 46 62 41 34 79 80 101 136 359 338 334 321 317 321 340 344 339 333 326 314 317 310 304 299 296